Weather History for KRSL - March, 2014

Change the Weather History Date:

Tuesday, March 25, 2014

  Actual Average Record
Temperature  
Mean Temperature 37 °F -  
Max Temperature 46 °F 57 °F 89 °F (1976)
Min Temperature 28 °F 32 °F -3 °F (1955)
Degree Days  
Heating Degree Days 28    
Moisture  
Dew Point 18 °F    
Average Humidity 51    
Maximum Humidity 85    
Minimum Humidity 27    
Precipitation  
Precipitation 0.00 in - - ()
Sea Level Pressure  
Sea Level Pressure 30.31 in    
Wind  
Wind Speed 8 mph (NE)    
Max Wind Speed 18 mph    
Max Gust Speed -    
Visibility 10 miles    
Events      
Averages and records for this station are not official NWS values.
T = Trace of Precipitation, MM = Missing Value Source: NWS Daily Summary

Daily Weather History Graph

Daily Weather History Graph

Search for Another Location

Airport or City:

Trip Planner

Search our weather history database for the weather conditions in past years. The results will help you decide how hot, cold, wet, or windy it might be!

Date:

Astronomy

Mar. 25, 2014 Rise Set
Actual Time 7:30 AM CDT 7:52 PM CDT
Civil Twilight 7:04 AM CDT 8:18 PM CDT
Nautical Twilight 6:32 AM CDT 8:50 PM CDT
Astronomical Twilight 6:01 AM CDT 9:22 PM CDT
Moon 3:51 AM CDT (3/25) 2:27 PM CDT (3/25)
Length of Visible Light 13h 14m
Length of Day
12h 21m
Waning Crescent, 32% of the Moon is Illuminated
Mar 25
Waning Crescent
Mar 30
New
Apr 7
First Quarter
Apr 15
Full
Apr 22
Last Quarter

Hourly Weather History & Observations

Time (CDT) Temp. Windchill Dew Point Humidity Pressure Visibility Wind Dir Wind Speed Gust Speed Precip Events Conditions
12:53 AM 30.0 °F - 17.1 °F 59% 30.29 in 10.0 mi Calm Calm - N/A   Overcast
1:53 AM 30.9 °F 24.3 °F 19.0 °F 61% 30.32 in 10.0 mi NW 6.9 mph - N/A   Overcast
2:53 AM 30.9 °F 23.5 °F 18.0 °F 59% 30.35 in 10.0 mi NNW 8.1 mph - N/A   Overcast
3:53 AM 33.1 °F 24.9 °F 18.0 °F 54% 30.37 in 10.0 mi North 10.4 mph - N/A   Overcast
4:53 AM 30.9 °F 19.1 °F 21.0 °F 67% 30.38 in 10.0 mi North 18.4 mph - N/A   Overcast
5:53 AM 30.0 °F 20.5 °F 23.0 °F 75% 30.40 in 10.0 mi North 11.5 mph - N/A   Overcast
6:53 AM 28.9 °F 21.1 °F 24.1 °F 82% 30.41 in 10.0 mi North 8.1 mph - N/A   Overcast
7:53 AM 28.9 °F 20.4 °F 25.0 °F 85% 30.44 in 10.0 mi North 9.2 mph - N/A   Overcast
8:53 AM 30.9 °F 22.2 °F 21.9 °F 69% 30.47 in 10.0 mi NNE 10.4 mph - N/A   Overcast
9:53 AM 30.9 °F 21.7 °F 18.0 °F 59% 30.48 in 10.0 mi NNE 11.5 mph - N/A   Overcast
10:53 AM 33.1 °F 25.5 °F 12.9 °F 43% 30.48 in 10.0 mi NE 9.2 mph - N/A   Overcast
11:53 AM 36.0 °F 29.0 °F 10.0 °F 34% 30.45 in 10.0 mi NNE 9.2 mph - N/A   Scattered Clouds
12:53 PM 37.9 °F 32.7 °F 12.0 °F 35% 30.42 in 10.0 mi East 6.9 mph - N/A   Overcast
1:53 PM 39.9 °F 36.7 °F 12.0 °F 32% 30.37 in 10.0 mi Variable 4.6 mph - N/A   Scattered Clouds
2:53 PM 42.1 °F - 12.9 °F 31% 30.32 in 10.0 mi Calm Calm - N/A   Clear
3:53 PM 45.0 °F - 14.0 °F 29% 30.26 in 10.0 mi North - - N/A   Clear
4:53 PM 45.0 °F 41.8 °F 12.9 °F 27% 30.24 in 10.0 mi South 5.8 mph - N/A   Clear
5:53 PM 46.9 °F - 17.1 °F 30% 30.21 in 10.0 mi SSW 12.7 mph - N/A   Clear
6:53 PM 45.0 °F 38.9 °F 19.0 °F 36% 30.18 in 10.0 mi SE 12.7 mph - N/A   Clear
7:53 PM 39.0 °F 32.3 °F 18.0 °F 43% 30.15 in 10.0 mi ESE 10.4 mph - N/A   Clear
8:53 PM 37.0 °F 29.3 °F 19.0 °F 48% 30.12 in 10.0 mi ESE 11.5 mph - N/A   Clear
9:53 PM 37.0 °F 27.7 °F 18.0 °F 46% 30.12 in 10.0 mi SE 16.1 mph - N/A   Clear
10:53 PM 36.0 °F 26.0 °F 21.0 °F 55% 30.11 in 10.0 mi SE 17.3 mph - N/A   Clear
11:53 PM 35.1 °F 24.8 °F 21.9 °F 59% 30.08 in 10.0 mi SSE 17.3 mph - N/A   Clear